Temperature
23 20 20 21 21 22 22 22 22 22 23 22 21 21 21 21 21 20 20 20 20 19 20 20 20 20 20 20 19 19 18 18 17 17 17 17 16 16 16 15 15 15 15 15
21 21 22 23 23 23 23 22 22 22 23 22 20 20 20 20 20 20 19 19 19 19 19 19 19 19 19 19 19 19 18 18 17 17 17 16 16 16 15 15 15 15 15 14
22 23 24 24 23 23 23 22 22 22 22 21 21 20 19 20 19 19 19 19 19 19 19 19 19 19 19 19 18 18 18 18 17 17 16 16 15 15 15 15 15 15 14 14
23 24 25 24 24 23 22 23 23 23 21 19 21 19 19 19 18 18 18 18 18 18 18 18 19 18 18 18 18 18 17 17 17 16 16 16 15 15 15 15 14 14 14 14
23 24 24 23 24 24 23 23 23 22 21 19 19 18 18 18 18 17 17 17 18 18 18 18 18 18 18 18 17 17 17 17 16 16 15 15 15 15 14 14 14 14 14 14
23 24 24 24 25 24 23 22 21 19 18 19 19 18 18 17 17 17 17 17 17 17 17 17 17 18 17 17 17 17 16 16 16 15 15 15 14 14 14 14 14 14 14 13
22 23 24 24 23 23 21 19 18 18 17 18 19 18 17 18 18 17 17 17 17 17 17 17 17 17 17 17 16 16 16 16 15 15 15 14 14 14 14 14 14 13 13 13
20 20 22 23 23 22 21 19 18 18 18 18 18 18 17 18 18 18 17 17 16 17 17 16 16 17 16 16 16 16 15 15 15 14 14 14 14 14 14 14 13 13 13 13
19 20 22 23 23 23 21 19 19 17 18 17 17 18 18 18 17 17 16 16 16 16 16 16 16 16 16 16 16 15 15 15 14 14 14 14 14 13 13 13 13 13 13 12
20 19 20 22 22 22 20 19 17 17 17 17 18 17 16 17 16 16 16 15 16 15 16 16 15 15 15 15 15 15 14 14 14 14 14 13 13 13 13 13 13 13 12 12
18 18 19 20 20 20 20 19 17 15 16 16 16 16 17 16 16 15 15 15 15 15 15 15 15 15 15 15 14 14 14 14 14 13 13 13 13 13 13 13 13 13 12 12
18 16 16 18 20 21 20 19 17 16 16 15 15 15 17 16 16 15 15 15 15 15 15 15 15 15 14 14 14 14 13 13 13 13 13 13 13 13 13 13 13 12 12 12
18 16 16 17 18 18 19 19 18 16 15 15 15 16 16 16 15 16 15 15 15 15 15 14 14 14 14 14 14 13 13 13 13 13 13 13 13 13 13 12 12 12 12 12
18 15 16 16 17 17 18 19 19 17 15 15 16 16 16 15 14 15 15 15 14 14 14 14 14 14 14 13 13 13 13 13 13 13 13 13 13 13 12 12 12 12 12 12
16 16 17 17 18 18 19 19 19 18 17 16 16 16 15 14 14 14 15 14 14 14 14 14 13 13 13 13 13 13 13 13 13 13 13 13 12 12 12 12 12 12 12 12
15 16 16 17 18 18 18 18 18 18 17 16 16 15 15 15 15 14 14 14 14 14 13 13 13 13 13 13 13 13 13 13 13 13 12 12 12 12 12 12 12 12 12 12
15 15 15 15 17 17 16 17 17 17 16 16 15 15 14 14 14 14 14 14 14 13 13 13 13 13 13 12 12 12 12 12 12 12 12 12 12 12 12 12 12 12 12 12
15 14 13 14 15 16 16 17 17 16 15 15 14 14 14 14 15 14 14 14 14 13 13 13 13 13 12 12 12 12 12 12 12 12 12 12 12 12 12 12 12 12 12 12
14 14 14 13 14 15 17 17 17 16 15 15 14 14 14 15 14 14 14 14 14 14 13 13 13 13 12 12 12 12 12 12 12 12 12 12 12 12 12 12 12 12 12 11
15 14 14 14 14 14 15 17 17 16 14 15 14 14 14 14 12 12 14 14 13 13 13 13 13 12 12 12 12 12 12 12 12 12 12 12 12 12 12 12 12 11 11 11
14 14 14 13 14 14 15 17 17 15 13 14 14 14 14 13 13 14 14 13 13 13 13 13 12 12 12 12 12 12 12 12 12 12 12 12 12 12 12 12 12 11 11 12
14 13 13 13 13 14 15 16 14 13 15 15 15 14 14 14 14 13 13 13 13 13 13 12 12 12 12 12 12 12 12 12 12 12 12 12 12 12 12 12 12 11 12 12
14 13 12 12 13 14 15 15 15 15 15 15 14 14 14 14 13 13 13 13 12 12 12 12 12 12 12 12 12 12 12 12 12 12 12 12 12 12 12 12 12 12 12 12
13 14 12 12 13 15 15 15 15 15 15 15 15 14 14 14 13 13 13 12 12 12 12 12 12 12 12 12 12 12 12 12 12 12 12 12 12 12 12 12 12 12 12 12
13 13 12 12 13 14 15 15 15 15 15 15 14 14 14 13 13 13 12 12 12 12 12 12 12 12 12 12 12 12 12 12 12 12 12 12 12 12 12 12 12 12 12 12
13 12 12 12 13 13 14 14 14 14 14 14 14 14 13 13 13 13 12 12 12 12 12 12 12 12 12 12 12 12 12 12 12 12 12 12 12 12 12 12 12 12 12 12
Wind_Speed
1 2 4 8 7 6 4 3 4 6 3 2 2 2 2 2 4 4 4 3 3 2 1 3 4 5 6 6 6 5 5 4 4 3 2 2 2 1 1 2 3 4 3 3
4 5 11 8 5 3 2 3 4 5 2 2 2 2 2 3 4 4 5 4 4 2 3 2 4 4 4 4 5 5 5 4 4 3 2 2 2 2 2 1 1 3 3 3
6 7 5 3 3 2 2 2 3 3 3 3 4 3 4 4 6 6 5 4 4 4 3 2 3 3 4 5 5 5 5 4 4 3 2 2 2 1 1 1 1 2 3 4
4 5 1 2 3 1 3 4 3 2 1 2 2 1 3 1 4 4 4 4 3 3 3 3 3 2 3 4 4 4 4 4 3 3 3 3 2 2 3 2 2 3 2 3
5 2 2 1 4 2 4 4 3 2 1 1 2 2 3 1 1 1 2 2 2 2 2 3 2 1 2 2 3 4 4 3 3 2 2 3 1 2 1 1 2 2 2 2
4 2 1 1 3 2 2 5 5 4 4 1 2 3 2 1 3 1 1 2 3 3 3 3 2 2 2 2 2 2 3 2 2 2 2 2 2 1 1 1 1 2 2 2
8 7 5 4 5 7 6 6 5 6 4 3 1 3 2 2 2 4 3 3 3 3 4 4 4 4 2 1 2 2 2 1 1 1 1 1 2 2 2 2 2 2 2 3
6 7 7 6 2 2 2 5 4 2 3 3 3 0 2 2 2 3 3 3 4 5 4 3 3 3 2 2 3 2 2 1 0 0 1 1 1 1 2 3 3 3 3 4
3 6 7 7 5 3 3 3 4 5 1 1 1 1 2 3 4 4 4 4 4 4 4 3 4 4 3 2 2 2 2 1 1 1 1 1 1 2 2 3 2 2 3 3
2 4 7 7 7 7 4 2 5 4 1 2 3 1 2 2 0 2 3 2 2 2 3 3 3 3 2 2 1 1 2 2 2 1 1 1 1 3 3 2 3 3 3 3
4 1 7 7 5 5 6 6 4 3 3 2 2 3 2 3 3 2 2 2 2 3 3 3 3 2 2 2 2 1 1 1 1 1 2 2 2 3 2 2 3 3 3 3
2 3 3 6 5 2 3 2 3 2 2 1 2 4 4 1 2 4 3 2 2 3 3 2 3 3 2 2 2 1 1 0 1 1 2 3 3 2 2 3 3 3 3 3
3 4 4 8 8 8 6 4 2 3 3 1 1 3 3 3 2 2 3 2 2 3 3 3 3 3 2 2 2 2 1 1 2 1 2 2 3 2 3 4 4 3 3 3
3 3 3 3 6 5 7 8 5 3 1 1 3 3 3 2 1 1 2 2 2 2 3 3 2 2 2 1 1 2 2 2 2 2 1 2 3 3 3 3 3 3 3 3
5 2 2 4 5 4 6 7 6 3 1 3 3 2 2 2 1 0 1 1 2 2 2 2 1 2 2 2 2 2 3 3 3 2 2 3 3 3 3 3 3 3 3 3
3 1 2 3 2 4 6 8 6 4 3 2 2 1 3 1 2 3 2 1 1 1 1 2 2 2 3 3 3 3 4 3 2 2 3 3 3 3 3 3 3 3 3 4
1 2 2 4 6 4 5 7 5 3 3 2 1 2 2 2 1 0 1 1 1 0 1 1 1 2 3 3 3 3 4 3 2 2 3 3 3 3 3 3 3 3 3 3
3 2 2 1 5 2 4 2 4 4 5 5 3 1 1 1 1 1 2 1 1 1 1 1 2 3 3 3 3 3 3 3 2 3 3 3 3 3 3 3 3 3 3 3
4 4 2 1 1 3 3 4 3 1 2 3 3 3 3 1 3 2 2 1 1 1 1 1 2 3 3 3 3 2 3 3 3 3 3 3 3 2 3 3 4 3 3 3
4 4 3 2 1 3 4 6 4 2 1 3 2 2 2 3 3 3 3 1 1 1 1 2 2 2 2 3 2 2 3 2 3 4 4 4 3 2 3 4 3 3 3 4
4 4 1 1 2 4 4 4 4 2 5 4 1 1 1 1 4 4 2 2 2 2 2 2 2 2 3 4 2 2 3 3 4 4 3 3 3 3 3 3 2 3 3 3
0 0 1 1 0 4 5 3 1 5 4 2 1 1 1 2 1 1 1 2 2 2 2 2 2 3 4 3 1 2 4 4 4 3 3 3 4 4 3 2 2 2 2 2
1 3 3 4 5 5 3 1 2 3 2 2 2 2 1 1 1 2 2 3 3 3 3 2 2 3 4 3 2 3 5 4 3 3 4 4 4 3 2 1 1 2 2 1
3 1 1 2 3 4 4 2 1 0 1 2 2 2 1 1 2 3 3 4 4 3 3 2 2 3 5 5 4 5 5 4 2 3 4 4 3 3 3 1 1 1 2 1
4 2 1 3 5 5 4 2 2 2 2 2 1 1 2 2 3 4 4 4 4 3 3 3 3 4 5 5 5 5 4 3 2 3 3 3 3 2 2 2 2 2 2 3
4 4 4 7 7 5 6 4 3 3 3 3 2 2 2 3 4 4 4 4 3 3 3 3 4 4 5 5 5 5 4 2 2 3 3 3 2 2 1 1 3 4 3 4
Wind_Direction
319 54 266 253 225 215 228 249 278 282 276 71 133 144 139 128 103 102 111 116 109 121 128 107 110 121 133 134 137 143 135 140 138 134 153 163 181 190 189 209 196 190 187 180
4 271 246 241 247 227 245 291 291 298 312 86 109 69 59 83 95 105 109 112 119 85 65 98 116 112 129 139 138 135 140 146 147 155 166 172 175 199 201 225 222 206 205 209
212 248 249 224 271 285 280 258 269 292 340 59 95 14 12 38 57 69 77 99 114 119 118 120 123 124 139 148 153 152 147 141 145 143 123 93 63 29 351 272 257 239 227 228
250 264 281 314 312 296 282 269 276 292 7 281 129 180 306 30 42 37 43 60 84 110 107 95 99 126 164 169 156 142 140 136 141 143 147 147 164 211 236 232 239 251 247 246
299 302 78 349 295 297 265 274 271 250 150 39 5 117 289 53 54 348 34 48 74 92 100 79 78 159 176 146 139 137 128 130 139 128 144 143 167 211 223 231 238 263 278 266
295 309 118 281 307 303 339 7 9 43 72 30 268 134 287 246 213 182 69 62 68 69 67 67 70 97 54 51 84 127 125 121 133 131 138 140 155 177 185 262 270 282 284 276
341 344 353 11 1 349 34 58 25 8 14 268 272 111 249 258 179 161 147 106 82 81 73 65 64 75 73 90 93 111 125 140 136 101 112 164 178 179 206 227 239 262 277 268
7 328 341 360 349 294 342 112 138 210 253 287 349 122 272 332 112 117 119 117 95 74 64 55 56 79 88 100 111 108 108 113 53 3 273 236 203 209 228 231 235 243 248 257
10 298 319 341 343 54 23 11 162 140 355 346 326 28 344 39 68 88 96 90 80 73 66 54 47 50 49 82 102 128 125 127 208 225 226 230 247 246 242 249 249 249 253 258
69 303 318 331 7 19 82 85 59 72 64 318 319 305 278 289 271 65 69 82 82 65 60 52 44 45 40 52 68 93 154 189 214 232 235 239 251 256 251 250 260 260 263 265
60 47 320 353 15 3 23 29 56 73 138 159 280 283 264 237 197 142 121 101 72 65 74 65 41 28 30 37 39 36 340 213 222 247 250 254 257 264 269 261 258 259 266 268
29 96 313 297 304 17 74 82 98 110 279 173 184 267 304 225 168 146 131 102 70 57 65 63 46 31 28 23 17 8 339 306 268 265 271 261 261 264 268 270 269 268 266 263
40 69 8 345 348 3 10 357 29 126 122 141 169 266 337 26 78 108 116 92 65 53 50 45 39 20 5 345 347 343 337 290 280 299 299 286 277 265 261 271 279 278 274 273
74 84 139 215 263 304 321 330 349 64 113 216 223 247 319 354 38 46 82 82 71 70 59 44 24 354 337 320 328 338 316 299 300 314 313 296 283 273 269 275 282 279 275 272
69 63 291 270 273 304 334 344 357 12 187 184 236 226 265 273 231 189 109 70 59 60 46 31 355 329 335 337 338 331 319 306 303 308 300 286 283 290 299 296 290 285 281 275
58 93 343 317 322 6 5 1 6 17 36 88 91 324 288 329 49 41 33 87 92 52 12 358 351 339 331 323 321 323 310 298 292 286 280 286 294 294 298 303 298 294 292 292
15 98 40 310 318 8 13 349 10 32 41 102 115 280 322 30 57 198 239 198 167 244 323 330 317 301 295 298 293 293 288 298 311 285 281 292 295 304 303 308 308 298 293 292
172 124 128 308 12 5 254 330 33 61 59 67 82 41 50 173 181 197 216 203 247 293 310 308 299 296 289 289 291 292 299 306 302 289 285 293 298 306 309 309 305 298 299 296
167 149 129 112 329 277 305 350 345 38 41 34 55 21 7 34 44 354 283 227 203 241 260 275 277 280 280 282 288 319 324 319 308 295 282 279 280 290 304 303 298 294 300 298
53 85 115 126 184 252 268 318 326 80 347 321 25 7 355 17 3 293 297 326 327 285 261 278 295 310 302 295 301 326 318 315 299 288 279 275 270 272 282 284 282 285 286 281
356 4 61 195 225 261 281 326 19 50 268 288 311 276 325 271 238 261 282 302 292 262 271 282 309 311 292 296 314 312 312 294 282 285 286 284 273 267 270 278 285 292 296 308
207 5 343 74 296 267 316 22 77 235 249 248 256 246 293 289 289 296 295 299 306 290 286 289 301 299 294 295 304 303 294 279 288 299 300 291 284 283 295 292 302 315 314 320
201 187 195 193 223 253 294 239 229 192 220 248 240 253 244 300 309 311 295 289 286 273 277 280 280 297 301 293 279 269 276 274 288 308 303 293 298 299 305 286 287 313 321 313
303 352 78 311 276 287 310 341 5 63 255 266 252 243 220 238 278 298 285 276 280 280 278 278 287 298 300 296 285 265 271 273 270 287 295 298 306 315 318 299 270 276 287 291
259 308 307 274 277 310 313 313 317 333 343 330 293 259 225 235 278 278 272 271 268 276 269 265 260 265 277 285 281 275 271 264 271 280 287 294 295 302 301 299 284 250 255 229
240 217 221 246 243 232 262 265 276 296 294 278 281 295 276 249 255 267 268 263 262 272 269 273 264 260 269 276 281 282 279 259 254 282 292 287 289 294 281 288 317 313 283 287
Height
1498 1504 1508 1502 1500 1500 1501 1503 1504 1499 1491 1494 1498 1498 1496 1494 1495 1497 1498 1498 1498 1499 1500 1501 1502 1502 1504 1504 1505 1505 1506 1506 1506 1507 1508 1507 1507 1507 1507 1507 1507 1507 1506 1506
1504 1506 1496 1492 1492 1494 1497 1502 1502 1497 1490 1493 1500 1501 1498 1497 1497 1498 1498 1498 1499 1499 1499 1500 1500 1501 1502 1503 1503 1503 1504 1504 1504 1505 1505 1505 1505 1505 1505 1505 1505 1504 1504 1503
1505 1498 1489 1490 1493 1495 1497 1500 1500 1498 1493 1493 1499 1506 1503 1500 1499 1499 1499 1498 1498 1498 1499 1499 1500 1500 1501 1501 1502 1501 1502 1503 1503 1503 1503 1503 1503 1503 1502 1502 1502 1501 1501 1501
1496 1490 1489 1491 1493 1494 1500 1490 1490 1493 1501 1508 1503 1520 1509 1503 1501 1501 1500 1499 1499 1498 1498 1498 1498 1499 1499 1499 1500 1500 1501 1501 1501 1501 1501 1500 1500 1500 1500 1500 1499 1499 1498 1498
1497 1490 1490 1493 1491 1489 1491 1485 1487 1491 1499 1508 1507 1517 1516 1505 1506 1503 1501 1500 1499 1498 1498 1498 1498 1499 1499 1499 1499 1499 1499 1500 1500 1500 1499 1498 1498 1498 1498 1497 1497 1496 1496 1495
1492 1487 1488 1488 1486 1485 1486 1488 1491 1497 1506 1519 1511 1517 1520 1510 1506 1503 1501 1500 1499 1498 1497 1498 1498 1499 1499 1499 1499 1499 1498 1499 1499 1498 1498 1497 1497 1496 1496 1495 1495 1494 1493 1492
1501 1494 1489 1487 1490 1488 1490 1505 1521 1523 1528 1524 1509 1515 1517 1504 1500 1500 1501 1500 1500 1499 1497 1498 1497 1496 1498 1498 1498 1498 1498 1498 1498 1497 1496 1496 1496 1495 1494 1494 1493 1492 1491 1490
1518 1513 1496 1491 1493 1495 1495 1504 1525 1533 1532 1525 1512 1517 1512 1502 1500 1500 1501 1501 1500 1499 1499 1499 1498 1497 1497 1497 1498 1497 1497 1497 1496 1496 1496 1495 1494 1494 1493 1492 1491 1490 1489 1488
1519 1515 1496 1492 1489 1490 1498 1504 1505 1519 1521 1527 1522 1515 1509 1503 1503 1502 1502 1501 1501 1501 1501 1500 1499 1498 1498 1498 1497 1497 1496 1496 1495 1495 1495 1494 1493 1492 1492 1491 1489 1488 1487 1486
1511 1516 1504 1496 1492 1492 1496 1500 1511 1521 1532 1535 1526 1521 1520 1509 1506 1505 1504 1503 1502 1502 1502 1501 1501 1500 1499 1498 1498 1497 1495 1495 1494 1494 1493 1493 1492 1491 1490 1489 1488 1487 1485 1484
1511 1520 1514 1505 1504 1504 1503 1507 1513 1522 1525 1534 1537 1529 1508 1508 1505 1505 1505 1504 1504 1503 1502 1502 1501 1501 1500 1499 1498 1496 1495 1494 1493 1492 1492 1491 1490 1490 1489 1487 1486 1485 1483 1482
1513 1521 1524 1514 1502 1499 1502 1506 1513 1526 1527 1527 1534 1530 1506 1505 1504 1504 1505 1505 1504 1503 1503 1502 1502 1500 1500 1499 1497 1496 1495 1493 1492 1491 1491 1490 1489 1488 1487 1485 1484 1482 1481 1479
1513 1523 1532 1524 1517 1508 1507 1505 1507 1514 1524 1528 1532 1526 1507 1506 1505 1505 1505 1505 1504 1504 1503 1502 1501 1500 1499 1498 1497 1495 1494 1493 1492 1491 1490 1489 1487 1486 1485 1483 1481 1480 1478 1477
1512 1523 1531 1536 1529 1518 1514 1507 1505 1512 1525 1526 1521 1518 1512 1509 1507 1507 1506 1506 1505 1504 1503 1502 1501 1500 1498 1497 1496 1495 1494 1493 1492 1490 1489 1487 1486 1484 1483 1481 1479 1477 1476 1475
1515 1524 1521 1520 1515 1512 1511 1508 1507 1510 1512 1519 1517 1514 1512 1509 1508 1508 1507 1505 1505 1504 1503 1502 1501 1499 1498 1496 1495 1494 1493 1492 1490 1489 1487 1485 1484 1483 1481 1479 1477 1475 1474 1472
1518 1523 1522 1520 1512 1511 1512 1509 1507 1508 1509 1512 1513 1515 1509 1509 1508 1508 1506 1505 1504 1504 1503 1502 1500 1498 1497 1496 1494 1493 1492 1490 1489 1487 1485 1484 1482 1481 1479 1477 1475 1473 1472 1470
1520 1523 1527 1528 1517 1514 1522 1515 1512 1512 1511 1512 1517 1516 1510 1509 1508 1507 1506 1504 1503 1503 1502 1501 1500 1498 1497 1495 1493 1492 1490 1489 1487 1485 1484 1482 1480 1479 1477 1475 1473 1472 1470 1468
1519 1523 1529 1531 1527 1532 1525 1513 1511 1512 1513 1513 1512 1511 1509 1508 1507 1507 1506 1505 1504 1502 1501 1500 1499 1497 1495 1494 1492 1490 1489 1487 1485 1484 1482 1481 1479 1477 1475 1474 1472 1470 1468 1467
1513 1520 1528 1534 1534 1529 1519 1514 1513 1514 1517 1513 1512 1511 1509 1508 1507 1507 1506 1505 1503 1502 1501 1499 1498 1496 1494 1493 1491 1489 1487 1485 1484 1482 1481 1479 1478 1476 1474 1472 1471 1469 1467 1466
1514 1517 1526 1531 1534 1535 1524 1514 1510 1512 1519 1513 1511 1511 1510 1508 1510 1508 1505 1504 1502 1501 1500 1498 1496 1495 1493 1491 1489 1488 1485 1484 1482 1481 1479 1478 1476 1475 1473 1471 1470 1468 1467 1465
1524 1525 1528 1532 1533 1527 1518 1513 1511 1522 1522 1513 1511 1510 1509 1508 1507 1505 1503 1502 1501 1500 1498 1496 1495 1493 1491 1490 1488 1486 1484 1482 1481 1479 1477 1476 1475 1473 1472 1470 1468 1467 1465 1464
1528 1530 1530 1532 1534 1531 1515 1513 1517 1518 1512 1511 1509 1508 1507 1506 1504 1503 1502 1501 1500 1498 1496 1495 1493 1491 1490 1488 1487 1484 1483 1481 1480 1478 1476 1474 1473 1472 1470 1469 1467 1466 1464 1463
1525 1526 1527 1528 1528 1519 1515 1514 1514 1512 1511 1509 1508 1507 1506 1504 1503 1502 1501 1499 1498 1496 1494 1492 1491 1489 1488 1487 1485 1483 1481 1480 1478 1476 1475 1473 1472 1471 1469 1468 1466 1465 1463 1462
1522 1519 1521 1522 1518 1516 1514 1512 1511 1510 1509 1508 1506 1505 1504 1502 1501 1500 1498 1497 1495 1494 1492 1490 1488 1486 1486 1485 1483 1481 1480 1478 1476 1475 1473 1472 1471 1470 1468 1467 1465 1464 1462 1461
1522 1520 1521 1520 1517 1514 1512 1511 1510 1508 1507 1505 1504 1503 1501 1500 1499 1497 1495 1494 1492 1491 1489 1488 1486 1485 1484 1482 1481 1480 1478 1476 1475 1473 1471 1470 1469 1468 1467 1466 1464 1463 1462 1461
1518 1518 1520 1518 1513 1513 1511 1509 1508 1506 1505 1503 1501 1500 1499 1498 1496 1494 1493 1491 1490 1488 1487 1486 1484 1483 1481 1480 1479 1477 1476 1475 1473 1471 1470 1469 1468 1467 1466 1465 1463 1462 1462 1460